QPF
0.00 0.00 0.00 0.00 0.00 0.00 0.00 0.00 0.00 0.00 0.00 0.00 0.00 0.00 0.00 0.00 0.00 0.00 0.00 0.00 0.00 0.00 0.00 0.00 0.00 0.00 0.00 0.00 0.00 0.00 0.00 0.00 0.00 0.00 0.00 0.00 0.04 0.10 0.09 0.02 0.00 0.00 0.00 0.00
0.00 0.00 0.00 0.00 0.00 0.00 0.00 0.00 0.00 0.00 0.00 0.00 0.00 0.00 0.00 0.00 0.00 0.00 0.00 0.00 0.00 0.00 0.00 0.00 0.00 0.00 0.00 0.00 0.00 0.00 0.00 0.00 0.00 0.00 0.00 0.02 0.03 0.08 0.07 0.01 0.00 0.00 0.00 0.00
0.00 0.00 0.00 0.00 0.00 0.00 0.00 0.00 0.00 0.00 0.00 0.00 0.00 0.00 0.00 0.00 0.00 0.00 0.00 0.00 0.00 0.00 0.00 0.00 0.00 0.00 0.00 0.00 0.00 0.00 0.00 0.00 0.00 0.00 0.00 0.00 0.05 0.08 0.04 0.01 0.00 0.00 0.00 0.00
0.00 0.00 0.00 0.00 0.00 0.00 0.00 0.00 0.00 0.00 0.00 0.00 0.00 0.00 0.00 0.00 0.00 0.00 0.00 0.00 0.00 0.00 0.00 0.00 0.00 0.00 0.00 0.00 0.00 0.00 0.00 0.00 0.00 0.00 0.00 0.01 0.03 0.04 0.04 0.01 0.00 0.00 0.00 0.00
0.00 0.00 0.00 0.00 0.00 0.00 0.00 0.00 0.00 0.00 0.00 0.00 0.00 0.00 0.00 0.00 0.00 0.00 0.00 0.00 0.00 0.00 0.00 0.00 0.00 0.00 0.00 0.00 0.00 0.00 0.02 0.02 0.00 0.00 0.00 0.06 0.10 0.09 0.04 0.01 0.01 0.00 0.00 0.00
0.00 0.00 0.00 0.00 0.00 0.00 0.00 0.00 0.00 0.00 0.00 0.00 0.00 0.00 0.00 0.00 0.00 0.00 0.00 0.00 0.00 0.00 0.00 0.00 0.00 0.00 0.00 0.00 0.00 0.00 0.00 0.06 0.05 0.00 0.01 0.05 0.12 0.08 0.04 0.02 0.00 0.00 0.00 0.00
0.00 0.00 0.00 0.00 0.00 0.00 0.00 0.00 0.00 0.00 0.00 0.00 0.00 0.00 0.00 0.00 0.00 0.00 0.00 0.00 0.00 0.00 0.00 0.00 0.00 0.00 0.00 0.00 0.00 0.01 0.01 0.03 0.06 0.05 0.01 0.00 0.07 0.09 0.05 0.02 0.00 0.00 0.00 0.00
0.00 0.00 0.00 0.00 0.00 0.00 0.00 0.00 0.00 0.00 0.00 0.00 0.00 0.00 0.00 0.00 0.00 0.00 0.00 0.00 0.00 0.00 0.00 0.00 0.00 0.00 0.00 0.01 0.04 0.01 0.02 0.05 0.05 0.05 0.04 0.04 0.08 0.10 0.07 0.04 0.00 0.00 0.00 0.00
0.00 0.00 0.00 0.00 0.00 0.00 0.00 0.00 0.00 0.00 0.00 0.00 0.00 0.00 0.00 0.00 0.00 0.00 0.00 0.00 0.00 0.00 0.00 0.00 0.00 0.00 0.00 0.00 0.05 0.07 0.03 0.03 0.02 0.02 0.06 0.09 0.13 0.14 0.14 0.07 0.02 0.01 0.01 0.01
0.00 0.00 0.00 0.00 0.00 0.00 0.00 0.00 0.00 0.00 0.00 0.00 0.00 0.00 0.00 0.00 0.00 0.00 0.00 0.00 0.00 0.00 0.00 0.00 0.00 0.00 0.00 0.00 0.02 0.03 0.02 0.01 0.01 0.01 0.04 0.08 0.09 0.11 0.09 0.07 0.05 0.03 0.02 0.03
0.00 0.00 0.00 0.00 0.00 0.00 0.00 0.00 0.00 0.00 0.00 0.00 0.00 0.00 0.00 0.00 0.00 0.00 0.00 0.00 0.00 0.00 0.00 0.00 0.00 0.00 0.00 0.00 0.00 0.00 0.00 0.01 0.01 0.03 0.05 0.05 0.07 0.08 0.08 0.07 0.05 0.03 0.01 0.01
0.00 0.00 0.00 0.00 0.00 0.00 0.00 0.00 0.00 0.00 0.00 0.00 0.00 0.00 0.00 0.00 0.00 0.00 0.00 0.00 0.00 0.00 0.00 0.00 0.00 0.00 0.00 0.00 0.00 0.00 0.02 0.04 0.06 0.07 0.08 0.11 0.11 0.08 0.05 0.04 0.03 0.02 0.01 0.00
0.00 0.00 0.00 0.00 0.00 0.00 0.00 0.00 0.00 0.00 0.00 0.00 0.00 0.00 0.00 0.00 0.00 0.00 0.00 0.00 0.00 0.00 0.00 0.00 0.00 0.00 0.00 0.00 0.00 0.02 0.05 0.07 0.08 0.10 0.09 0.08 0.05 0.04 0.01 0.01 0.01 0.00 0.00 0.00
0.00 0.00 0.00 0.00 0.00 0.00 0.00 0.00 0.00 0.00 0.00 0.00 0.00 0.00 0.00 0.00 0.00 0.00 0.00 0.00 0.00 0.00 0.00 0.00 0.00 0.00 0.00 0.01 0.05 0.05 0.04 0.06 0.09 0.09 0.08 0.05 0.04 0.02 0.01 0.01 0.00 0.00 0.00 0.01
0.00 0.00 0.00 0.00 0.00 0.00 0.00 0.00 0.00 0.00 0.00 0.00 0.00 0.00 0.00 0.00 0.00 0.00 0.00 0.00 0.00 0.00 0.00 0.00 0.00 0.01 0.01 0.03 0.03 0.02 0.04 0.04 0.04 0.04 0.04 0.04 0.02 0.01 0.00 0.00 0.00 0.00 0.01 0.00
0.00 0.00 0.00 0.00 0.00 0.00 0.00 0.00 0.00 0.00 0.00 0.00 0.00 0.00 0.00 0.00 0.00 0.00 0.00 0.00 0.00 0.00 0.00 0.00 0.00 0.00 0.01 0.01 0.01 0.01 0.01 0.00 0.01 0.01 0.02 0.01 0.00 0.00 0.00 0.00 0.00 0.00 0.00 0.01
0.00 0.00 0.00 0.00 0.00 0.00 0.00 0.00 0.00 0.00 0.00 0.00 0.00 0.00 0.00 0.00 0.00 0.00 0.00 0.00 0.00 0.00 0.00 0.00 0.00 0.00 0.00 0.00 0.00 0.00 0.00 0.00 0.00 0.01 0.00 0.00 0.00 0.00 0.00 0.00 0.00 0.00 0.02 0.07
0.00 0.00 0.00 0.00 0.00 0.00 0.00 0.00 0.00 0.00 0.00 0.00 0.00 0.00 0.00 0.00 0.00 0.00 0.00 0.00 0.00 0.00 0.00 0.00 0.00 0.00 0.00 0.00 0.00 0.00 0.00 0.00 0.00 0.00 0.00 0.00 0.00 0.00 0.00 0.00 0.01 0.04 0.08 0.05
0.00 0.00 0.00 0.00 0.00 0.00 0.00 0.00 0.00 0.00 0.00 0.00 0.00 0.00 0.00 0.00 0.00 0.00 0.00 0.00 0.00 0.00 0.00 0.00 0.00 0.00 0.00 0.00 0.00 0.00 0.00 0.00 0.00 0.00 0.00 0.00 0.00 0.00 0.00 0.03 0.09 0.09 0.03 0.00
0.00 0.00 0.00 0.00 0.00 0.00 0.00 0.00 0.00 0.00 0.00 0.00 0.00 0.00 0.00 0.00 0.00 0.00 0.00 0.00 0.00 0.00 0.00 0.00 0.00 0.00 0.00 0.00 0.00 0.00 0.00 0.00 0.00 0.00 0.00 0.00 0.02 0.07 0.09 0.07 0.02 0.00 0.00 0.00
0.00 0.00 0.00 0.00 0.00 0.00 0.00 0.00 0.00 0.00 0.00 0.00 0.00 0.00 0.00 0.00 0.00 0.00 0.00 0.00 0.00 0.00 0.00 0.00 0.00 0.00 0.00 0.00 0.00 0.00 0.00 0.00 0.00 0.00 0.01 0.02 0.03 0.01 0.00 0.00 0.00 0.00 0.00 0.00
0.00 0.00 0.00 0.00 0.00 0.00 0.00 0.00 0.00 0.00 0.00 0.00 0.00 0.00 0.00 0.00 0.00 0.00 0.00 0.00 0.00 0.00 0.00 0.00 0.00 0.00 0.00 0.00 0.00 0.00 0.00 0.00 0.00 0.00 0.00 0.00 0.00 0.00 0.00 0.00 0.00 0.00 0.00 0.00
0.00 0.00 0.00 0.00 0.00 0.00 0.00 0.00 0.00 0.00 0.00 0.00 0.00 0.00 0.00 0.00 0.00 0.00 0.00 0.00 0.00 0.00 0.00 0.00 0.00 0.00 0.00 0.00 0.00 0.00 0.00 0.00 0.00 0.00 0.00 0.00 0.00 0.00 0.00 0.00 0.00 0.00 0.00 0.00
0.00 0.00 0.00 0.00 0.00 0.00 0.00 0.00 0.00 0.00 0.00 0.00 0.00 0.00 0.00 0.00 0.00 0.00 0.00 0.00 0.00 0.00 0.00 0.00 0.00 0.00 0.00 0.00 0.00 0.00 0.00 0.00 0.00 0.00 0.00 0.00 0.00 0.00 0.00 0.00 0.00 0.00 0.00 0.00
0.00 0.00 0.00 0.00 0.00 0.00 0.00 0.00 0.00 0.00 0.00 0.00 0.00 0.00 0.00 0.00 0.00 0.00 0.00 0.00 0.00 0.00 0.00 0.00 0.00 0.00 0.00 0.00 0.00 0.00 0.00 0.00 0.00 0.00 0.00 0.00 0.00 0.00 0.00 0.00 0.00 0.00 0.00 0.00
0.00 0.00 0.00 0.00 0.00 0.00 0.00 0.00 0.00 0.00 0.00 0.00 0.00 0.00 0.00 0.00 0.00 0.00 0.00 0.00 0.00 0.00 0.00 0.00 0.00 0.00 0.00 0.00 0.00 0.00 0.00 0.00 0.00 0.00 0.00 0.00 0.00 0.00 0.00 0.00 0.00 0.00 0.00 0.00
MSLP
1011.47 1011.89 1012.26 1011.92 1011.60 1011.67 1011.68 1011.55 1011.39 1010.92 1010.66 1010.96 1010.96 1011.43 1012.04 1012.77 1013.30 1013.81 1014.12 1014.32 1014.58 1014.58 1014.67 1015.14 1015.64 1016.16 1016.81 1017.20 1017.46 1017.77 1018.25 1018.76 1019.15 1019.86 1020.31 1020.93 1021.19 1021.52 1021.82 1021.95 1021.81 1022.15 1022.57 1022.86
1011.99 1011.94 1011.52 1011.57 1011.21 1011.30 1011.35 1011.45 1011.21 1010.76 1011.08 1010.79 1011.31 1011.70 1011.72 1012.33 1012.51 1012.73 1013.31 1013.52 1013.75 1014.14 1014.49 1014.83 1015.13 1015.58 1016.00 1016.40 1016.83 1017.33 1017.81 1018.31 1018.72 1019.13 1019.69 1020.32 1020.96 1021.41 1021.69 1021.73 1021.93 1022.21 1022.24 1022.72
1011.98 1011.45 1011.09 1011.47 1011.09 1011.05 1011.09 1011.15 1010.97 1011.02 1010.92 1011.06 1011.34 1011.45 1011.55 1011.70 1011.97 1012.48 1012.70 1012.61 1012.88 1013.00 1013.57 1014.10 1014.54 1015.01 1015.42 1015.88 1016.24 1016.60 1017.07 1017.61 1018.15 1018.72 1019.47 1020.29 1020.75 1021.33 1021.59 1021.82 1022.00 1022.17 1022.37 1022.63
1011.72 1011.04 1010.94 1011.12 1010.92 1010.80 1011.05 1010.78 1010.89 1011.08 1011.79 1012.26 1012.02 1012.24 1011.48 1011.46 1011.48 1011.64 1011.81 1012.23 1012.24 1012.44 1012.81 1013.25 1013.88 1014.32 1014.58 1014.99 1015.86 1016.42 1017.06 1017.54 1018.00 1018.46 1019.09 1019.50 1019.82 1020.69 1021.04 1021.07 1021.58 1022.00 1022.31 1022.62
1011.24 1010.89 1010.92 1010.77 1010.58 1010.49 1010.72 1010.72 1011.26 1011.70 1012.43 1012.86 1012.74 1012.96 1011.41 1011.30 1011.33 1010.98 1010.73 1010.87 1011.33 1011.56 1011.87 1012.40 1012.82 1012.96 1014.01 1015.05 1015.57 1016.08 1016.67 1017.31 1017.81 1018.25 1018.63 1019.08 1019.62 1020.26 1020.65 1021.35 1021.66 1021.97 1022.61 1022.87
1011.06 1010.65 1010.57 1010.22 1010.15 1010.23 1010.31 1011.09 1011.94 1012.70 1013.27 1013.59 1012.92 1012.88 1011.76 1010.97 1009.94 1009.69 1009.80 1010.19 1010.46 1011.01 1011.31 1011.60 1012.21 1013.14 1013.78 1014.53 1015.32 1015.81 1016.37 1017.00 1017.45 1017.91 1018.38 1018.68 1019.06 1019.76 1020.53 1021.24 1021.60 1022.23 1022.71 1023.25
1011.10 1010.71 1010.08 1009.91 1009.99 1010.29 1010.74 1011.68 1013.19 1014.14 1014.37 1013.99 1013.26 1012.95 1011.08 1009.95 1009.54 1009.35 1009.28 1009.22 1009.43 1009.99 1010.78 1011.31 1012.00 1012.55 1013.28 1014.04 1014.77 1015.48 1015.98 1016.48 1016.81 1017.42 1017.91 1018.08 1018.53 1019.30 1019.98 1020.62 1021.19 1022.01 1022.57 1023.27
1011.32 1010.90 1010.12 1009.71 1009.74 1010.10 1010.84 1011.77 1013.52 1014.53 1015.35 1014.61 1013.59 1012.60 1010.33 1009.28 1009.03 1008.75 1008.61 1008.83 1009.31 1009.97 1010.35 1010.85 1011.15 1011.77 1012.64 1013.51 1014.11 1014.82 1015.43 1015.88 1016.33 1016.82 1017.17 1017.69 1018.26 1018.90 1019.64 1019.92 1020.33 1021.08 1021.88 1022.66
1011.03 1010.66 1009.91 1009.68 1009.65 1010.11 1010.89 1011.77 1012.70 1014.42 1015.75 1015.47 1013.84 1012.18 1010.16 1009.18 1008.88 1008.90 1008.94 1009.22 1009.41 1009.53 1010.09 1010.41 1011.03 1011.57 1012.23 1012.87 1013.40 1014.02 1014.82 1015.41 1015.75 1016.09 1016.59 1017.21 1017.96 1018.53 1019.04 1019.54 1019.82 1020.65 1021.36 1022.07
1010.14 1010.56 1010.30 1009.85 1009.71 1009.87 1010.29 1011.39 1012.91 1014.36 1015.59 1015.50 1014.12 1012.82 1011.05 1009.72 1009.37 1009.27 1009.19 1009.33 1009.83 1010.10 1010.35 1010.67 1011.14 1011.60 1012.05 1012.55 1013.20 1013.83 1014.01 1014.41 1014.85 1015.59 1016.26 1016.83 1017.33 1017.92 1018.57 1019.09 1019.55 1019.92 1020.24 1020.81
1009.77 1010.25 1010.85 1010.48 1009.93 1009.96 1010.78 1011.37 1012.66 1013.84 1015.17 1015.45 1014.80 1012.84 1010.53 1009.78 1009.37 1009.16 1009.13 1009.37 1009.76 1010.21 1010.44 1010.57 1010.91 1011.37 1011.75 1012.33 1012.97 1013.33 1013.85 1014.27 1014.82 1015.41 1016.09 1016.67 1017.11 1017.72 1018.41 1018.76 1019.02 1019.72 1020.47 1021.46
1009.49 1010.04 1010.86 1010.26 1009.67 1009.74 1010.17 1010.93 1011.97 1013.77 1015.07 1015.47 1014.80 1012.23 1010.07 1009.50 1009.35 1009.23 1009.08 1009.29 1009.57 1009.98 1010.34 1010.62 1010.93 1011.33 1011.58 1011.86 1012.28 1012.69 1013.53 1014.22 1014.67 1015.19 1016.02 1016.71 1017.41 1018.01 1018.49 1019.04 1019.54 1020.34 1021.05 1021.51
1009.33 1010.09 1010.93 1010.74 1010.49 1010.22 1010.34 1010.70 1011.46 1012.65 1013.77 1014.63 1014.56 1012.13 1010.21 1009.66 1009.39 1009.16 1009.22 1009.47 1009.70 1009.99 1010.29 1010.75 1011.09 1011.38 1011.67 1012.00 1012.54 1013.06 1013.56 1014.00 1014.49 1015.23 1015.89 1016.70 1017.33 1017.89 1018.63 1019.33 1019.94 1020.55 1021.15 1021.83
1008.39 1009.49 1010.17 1010.36 1009.97 1009.87 1010.50 1010.51 1011.11 1011.90 1013.42 1013.55 1013.12 1011.73 1010.63 1010.15 1010.03 1009.60 1009.42 1009.65 1009.82 1010.11 1010.29 1010.59 1011.01 1011.43 1011.96 1012.42 1012.92 1013.51 1013.79 1014.22 1014.92 1015.56 1016.26 1017.12 1017.70 1018.23 1018.77 1019.34 1019.97 1020.55 1021.35 1022.13
1008.51 1009.61 1010.04 1009.79 1009.64 1009.71 1009.82 1010.22 1010.64 1011.09 1011.51 1012.09 1011.70 1011.70 1010.68 1010.34 1010.36 1010.20 1010.06 1010.05 1010.25 1010.64 1010.83 1011.06 1011.30 1012.01 1012.38 1012.77 1013.11 1013.71 1014.28 1014.83 1015.41 1015.99 1016.66 1017.43 1018.20 1018.74 1019.34 1019.85 1020.43 1021.14 1021.35 1022.15
1008.94 1009.79 1010.26 1010.64 1010.36 1010.14 1010.05 1009.97 1010.31 1010.60 1010.89 1011.06 1011.04 1011.07 1010.17 1010.40 1010.72 1010.87 1011.11 1011.41 1011.70 1012.05 1012.26 1012.28 1012.23 1012.26 1012.65 1012.98 1013.63 1014.22 1014.72 1015.20 1015.68 1016.63 1017.36 1017.96 1018.51 1019.12 1019.63 1020.51 1021.32 1021.65 1021.89 1022.70
1009.21 1010.04 1011.34 1011.86 1011.49 1011.08 1010.84 1009.59 1009.60 1009.75 1009.79 1010.02 1010.54 1010.28 1010.49 1011.11 1011.65 1012.20 1012.45 1012.61 1013.17 1013.56 1013.73 1013.74 1013.89 1014.13 1014.05 1014.17 1014.50 1015.22 1015.72 1016.14 1016.66 1017.31 1018.10 1018.81 1019.53 1020.20 1020.83 1021.29 1021.64 1022.10 1022.36 1022.56
1009.31 1010.46 1011.78 1012.96 1012.93 1011.84 1009.68 1009.06 1008.89 1009.17 1009.25 1009.52 1009.96 1010.19 1010.39 1011.43 1012.63 1013.29 1013.65 1013.98 1014.38 1014.75 1015.01 1015.20 1015.29 1015.21 1015.35 1015.59 1015.85 1016.23 1016.75 1017.28 1017.80 1018.50 1019.13 1019.67 1020.26 1020.87 1021.31 1021.65 1022.05 1022.41 1022.58 1022.55
1009.24 1010.41 1012.68 1013.53 1013.43 1011.59 1009.95 1009.16 1008.96 1008.92 1008.89 1009.13 1009.97 1010.76 1011.44 1012.27 1012.92 1014.31 1014.78 1015.11 1015.66 1016.08 1016.36 1016.41 1016.31 1016.41 1016.64 1016.88 1017.18 1017.36 1017.99 1018.45 1018.91 1019.56 1020.01 1020.56 1020.90 1021.26 1021.60 1021.92 1022.12 1022.25 1022.49 1022.53
1009.53 1010.40 1011.80 1013.64 1013.38 1011.80 1009.65 1008.18 1007.99 1008.32 1008.86 1009.09 1009.69 1010.94 1011.77 1012.82 1014.06 1015.26 1015.76 1016.21 1016.63 1016.82 1016.81 1016.96 1017.22 1017.39 1017.53 1018.10 1018.24 1018.40 1019.06 1019.40 1019.93 1020.40 1020.72 1020.99 1021.41 1021.60 1021.79 1022.05 1022.30 1022.36 1022.42 1022.42
1010.83 1011.82 1012.75 1013.49 1012.83 1010.96 1008.67 1008.19 1008.37 1008.95 1008.53 1008.37 1009.32 1010.61 1011.84 1012.97 1014.00 1015.08 1016.18 1016.81 1017.01 1017.19 1017.50 1017.78 1017.98 1018.34 1018.79 1018.98 1019.10 1019.55 1019.99 1020.45 1020.86 1021.06 1021.30 1021.49 1021.75 1022.08 1022.22 1022.39 1022.45 1022.47 1022.51 1022.45
1009.61 1011.17 1012.42 1012.70 1012.12 1010.23 1007.98 1008.60 1008.51 1007.66 1007.71 1008.35 1009.43 1010.41 1012.00 1013.25 1014.58 1015.60 1016.39 1016.97 1017.45 1017.88 1018.26 1018.51 1018.71 1019.28 1019.72 1019.90 1019.99 1020.60 1021.01 1021.36 1021.41 1021.61 1021.85 1022.19 1022.38 1022.51 1022.62 1022.69 1022.64 1022.56 1022.50 1022.42
1008.71 1008.41 1009.71 1010.16 1009.12 1007.87 1007.72 1007.49 1007.27 1007.45 1008.03 1008.67 1009.44 1010.72 1011.70 1013.47 1014.90 1015.94 1016.80 1017.45 1018.01 1018.43 1018.82 1019.15 1019.45 1020.01 1020.50 1020.84 1021.09 1021.48 1021.94 1021.99 1022.12 1022.33 1022.66 1022.83 1022.87 1022.95 1023.00 1023.01 1022.92 1022.76 1022.51 1022.28
1007.68 1007.65 1008.19 1009.05 1008.14 1007.91 1007.89 1007.85 1007.89 1007.80 1008.20 1008.86 1009.56 1010.80 1012.08 1013.34 1015.04 1016.21 1017.19 1017.97 1018.52 1019.00 1019.38 1019.75 1020.16 1020.84 1021.53 1021.94 1022.13 1022.41 1022.54 1022.48 1022.66 1023.04 1023.31 1023.43 1023.50 1023.44 1023.31 1023.13 1022.92 1022.80 1022.57 1022.30
1006.61 1007.12 1007.73 1008.08 1007.97 1008.21 1008.17 1008.27 1008.32 1008.60 1008.98 1009.72 1010.74 1011.60 1012.70 1013.80 1015.49 1016.45 1017.51 1018.31 1018.93 1019.43 1019.94 1020.31 1020.86 1021.66 1022.39 1022.74 1022.92 1023.14 1023.24 1023.18 1023.41 1023.66 1023.85 1023.92 1023.91 1023.83 1023.60 1023.38 1023.12 1022.80 1022.62 1022.42
1005.76 1005.94 1006.66 1006.03 1005.54 1006.17 1006.87 1007.82 1008.89 1009.27 1009.87 1010.49 1011.14 1012.82 1013.77 1014.44 1015.53 1016.74 1017.95 1018.71 1019.29 1019.88 1020.44 1021.07 1021.77 1022.44 1023.22 1023.40 1023.71 1023.89 1023.95 1023.97 1024.12 1024.31 1024.46 1024.51 1024.41 1024.24 1023.97 1023.65 1023.14 1022.88 1022.57 1022.32
Thickness
5631 5622 5612 5622 5629 5631 5628 5627 5626 5635 5647 5641 5639 5638 5634 5635 5638 5633 5633 5635 5635 5636 5638 5635 5633 5632 5628 5626 5626 5626 5622 5618 5615 5610 5608 5602 5602 5598 5595 5595 5597 5594 5590 5588
5621 5615 5627 5629 5634 5631 5632 5626 5625 5640 5641 5642 5634 5633 5644 5635 5642 5645 5639 5640 5641 5640 5638 5637 5637 5635 5634 5632 5630 5627 5624 5620 5617 5615 5610 5605 5599 5596 5594 5594 5593 5589 5589 5583
5615 5628 5634 5627 5633 5630 5630 5628 5633 5634 5637 5642 5641 5632 5642 5644 5645 5644 5646 5650 5650 5649 5644 5643 5641 5639 5637 5633 5632 5630 5627 5623 5620 5616 5609 5602 5599 5593 5591 5589 5587 5583 5580 5577
5622 5633 5632 5627 5628 5630 5620 5636 5637 5634 5625 5610 5635 5609 5636 5640 5642 5647 5652 5648 5652 5653 5653 5651 5646 5642 5641 5639 5633 5630 5625 5622 5618 5614 5609 5606 5604 5596 5592 5592 5585 5580 5576 5571
5623 5629 5626 5625 5627 5635 5625 5639 5636 5633 5618 5620 5622 5611 5632 5639 5639 5647 5657 5660 5658 5659 5659 5655 5653 5653 5645 5636 5632 5629 5625 5621 5617 5613 5610 5607 5602 5595 5592 5582 5578 5573 5565 5558
5626 5636 5632 5631 5639 5637 5643 5635 5622 5614 5611 5602 5623 5613 5620 5633 5649 5658 5662 5661 5663 5660 5661 5661 5658 5649 5644 5636 5631 5628 5623 5617 5616 5613 5608 5604 5601 5593 5584 5577 5571 5563 5556 5548
5622 5626 5637 5639 5633 5636 5632 5617 5592 5585 5583 5596 5618 5611 5626 5650 5656 5660 5662 5666 5670 5667 5662 5658 5653 5650 5644 5638 5633 5628 5624 5620 5617 5611 5606 5605 5598 5589 5583 5575 5567 5557 5549 5539
5601 5601 5627 5637 5634 5625 5628 5618 5588 5596 5578 5598 5616 5608 5636 5660 5660 5661 5666 5669 5667 5663 5662 5658 5658 5654 5647 5640 5635 5630 5624 5621 5617 5612 5608 5601 5593 5586 5578 5574 5567 5557 5546 5535
5599 5609 5631 5634 5637 5634 5621 5612 5620 5589 5581 5573 5601 5621 5643 5656 5662 5658 5661 5660 5660 5662 5660 5662 5656 5654 5647 5643 5639 5634 5626 5621 5615 5611 5605 5598 5589 5583 5576 5570 5563 5553 5542 5532
5615 5608 5621 5628 5635 5636 5631 5625 5605 5590 5592 5593 5599 5608 5614 5643 5649 5651 5657 5661 5657 5654 5656 5656 5652 5649 5646 5642 5637 5631 5628 5623 5616 5608 5601 5594 5589 5582 5573 5567 5560 5553 5543 5533
5618 5614 5611 5621 5620 5620 5617 5613 5608 5602 5585 5582 5575 5600 5630 5641 5649 5652 5655 5656 5655 5650 5651 5652 5651 5648 5645 5639 5634 5629 5622 5617 5608 5602 5594 5588 5582 5574 5567 5563 5556 5545 5532 5517
5621 5606 5594 5612 5628 5631 5625 5617 5610 5583 5593 5577 5567 5596 5642 5642 5642 5646 5651 5654 5654 5652 5649 5648 5646 5643 5641 5638 5632 5626 5618 5611 5605 5598 5589 5580 5571 5564 5558 5549 5541 5529 5516 5507
5617 5599 5586 5597 5610 5620 5620 5620 5615 5599 5585 5581 5563 5595 5637 5638 5640 5645 5645 5647 5647 5648 5648 5643 5640 5637 5634 5630 5623 5618 5612 5606 5598 5589 5582 5573 5565 5557 5546 5536 5527 5516 5505 5492
5625 5602 5601 5595 5608 5613 5608 5616 5612 5606 5576 5587 5584 5609 5628 5633 5632 5637 5640 5641 5641 5642 5643 5640 5637 5632 5626 5621 5614 5607 5603 5596 5588 5580 5572 5562 5553 5543 5533 5524 5513 5504 5491 5478
5618 5602 5605 5613 5619 5616 5617 5615 5605 5607 5606 5595 5610 5599 5619 5625 5625 5626 5630 5636 5636 5635 5634 5632 5629 5621 5616 5611 5607 5599 5591 5585 5578 5570 5559 5548 5537 5528 5518 5508 5498 5486 5479 5466
5611 5603 5610 5606 5609 5610 5611 5614 5604 5607 5609 5605 5608 5606 5620 5623 5620 5617 5617 5618 5616 5614 5612 5610 5614 5614 5610 5605 5595 5586 5578 5571 5564 5552 5542 5532 5523 5513 5503 5490 5478 5470 5462 5447
5606 5596 5585 5592 5590 5596 5578 5604 5608 5611 5612 5613 5598 5612 5612 5611 5609 5607 5604 5603 5598 5592 5590 5590 5586 5584 5584 5582 5576 5566 5559 5553 5545 5535 5524 5513 5502 5491 5481 5471 5463 5453 5443 5434
5596 5592 5571 5559 5562 5562 5610 5615 5618 5609 5611 5611 5608 5610 5609 5601 5585 5579 5578 5585 5578 5574 5571 5569 5567 5568 5564 5560 5555 5549 5541 5532 5523 5512 5502 5493 5483 5472 5463 5454 5444 5435 5427 5421
5599 5584 5561 5563 5560 5583 5607 5608 5605 5604 5607 5608 5601 5593 5588 5584 5584 5570 5563 5560 5557 5554 5552 5551 5551 5549 5545 5540 5535 5529 5520 5512 5503 5493 5484 5474 5466 5457 5448 5439 5431 5424 5417 5410
5590 5581 5579 5536 5555 5557 5595 5613 5612 5611 5590 5604 5597 5587 5584 5579 5576 5567 5549 5547 5543 5542 5542 5540 5536 5532 5528 5520 5516 5510 5500 5493 5484 5475 5467 5458 5449 5441 5434 5426 5417 5410 5403 5395
5559 5552 5554 5513 5538 5567 5601 5609 5607 5582 5593 5601 5597 5588 5578 5580 5568 5547 5539 5536 5535 5533 5530 5526 5522 5515 5508 5504 5500 5491 5482 5473 5465 5457 5450 5443 5434 5425 5417 5408 5401 5393 5385 5379
5582 5561 5537 5525 5527 5569 5605 5600 5590 5600 5603 5597 5590 5583 5570 5550 5544 5538 5534 5530 5527 5521 5515 5511 5507 5499 5492 5487 5482 5470 5462 5454 5448 5441 5433 5423 5414 5406 5399 5391 5384 5376 5369 5362
5582 5589 5575 5577 5583 5601 5600 5605 5606 5599 5596 5591 5585 5573 5563 5548 5538 5532 5525 5519 5513 5507 5501 5497 5492 5484 5475 5468 5461 5453 5442 5436 5428 5420 5411 5403 5396 5388 5381 5374 5367 5360 5353 5346
5586 5586 5582 5582 5593 5595 5594 5591 5593 5595 5593 5583 5577 5567 5559 5545 5532 5522 5514 5507 5500 5494 5489 5482 5475 5465 5455 5447 5440 5431 5423 5417 5409 5400 5392 5385 5377 5370 5363 5356 5350 5343 5334 5326
5585 5583 5575 5574 5583 5585 5583 5578 5579 5575 5572 5568 5560 5554 5545 5536 5522 5514 5504 5496 5488 5480 5472 5466 5457 5447 5435 5426 5419 5411 5403 5398 5390 5382 5375 5367 5360 5353 5346 5339 5332 5325 5314 5304
5583 5586 5579 5588 5601 5599 5597 5575 5567 5568 5562 5558 5551 5536 5530 5525 5514 5503 5491 5482 5474 5465 5457 5447 5436 5426 5414 5407 5399 5391 5384 5378 5371 5364 5356 5347 5340 5333 5327 5322 5318 5309 5301 5292